Header for Extended Forecast Station List Page

Search by: ID | Name | Date | Parm | Value | Avg | % Avg
Sort by: ID | Name | Date | Parm | Value | Avg | % Avg

Enter search or view all records.

Click on id for station plot
#IDNameDateParmValueAvg% Avg
0BULO3BULLY CREEK-BULLY CREEK DAM07-06-2020INFLOW (KAF)M0M
1MYKO3MCKAY CREEK-NEAR PILOT ROCK07-06-2020DISCHARGE (KAF)0098
2WRMO3MALHEUR-WARM SPRINGS DAM07-06-2020INFLOW (KAF)43151
3RIDI1WILLOW CREEK-RIRIE DAM07-06-2020INFLOW (KAF)85149
4BERO3MALHEUR-AGENCY VALLEY DAM07-06-2020INFLOW (KAF)87122
5UMAO3UMATILLA-NEAR UMATILLA07-06-2020DISCHARGE (KAF)347463
6TCHW1WALLA WALLA-NEAR TOUCHET07-06-2020DISCHARGE (KAF)108116
7TNAW1TEANAWAY-BELOW FORKS07-06-2020DISCHARGE (KAF)7979
8GIBO3UMATILLA-NEAR GIBBON07-06-2020DISCHARGE (KAF)121299
9PDTO3UMATILLA-AT PENDLETON07-06-2020DISCHARGE (KAF)121297
10KADW1KACHESS-KACHESS DAM07-06-2020INFLOW (KAF)141786
11LWRI1LITTLE WOOD-LITTLE WOOD DAM07-06-2020INFLOW (KAF)61736
12SATI1ST MARIES-NEAR SANTA07-06-2020DISCHARGE (KAF)171989
13KEDW1YAKIMA-KEECHELUS LAKE07-06-2020INFLOW (KAF)242594
14PIHI1PORTNEUF-AT POCATELLO07-06-2020DISCHARGE (KAF)232591
15HOTI1BRUNEAU-NEAR HOT SPRINGS07-06-2020DISCHARGE (KAF)2826105
16DEDI1DEADWOOD-NEAR LOWMAN07-06-2020INFLOW (KAF)162662
17BUDW1BUMPING-BUMPING LAKE DAM07-06-2020INFLOW (KAF)182767
18STRM8ST. REGIS-NEAR ST. REGIS07-06-2020DISCHARGE (KAF)373799
19MAGI1BIG WOOD-MAGIC DAM07-06-2020INFLOW (KAF)183749
20DLGM8CLARK FORK-AT DEER LODGE07-06-2020DISCHARGE (KAF)8743203
21MONO3NF JOHN DAY-AT MONUMENT07-06-2020DISCHARGE (KAF)4643106
22MACI1BIG LOST-MACKAY RESERVOIR NEAR MACKAY07-06-2020INFLOW (KAF)364483
23ARDW1ENTIAT-NEAR ARDENVOIR07-06-2020DISCHARGE (KAF)315162
24OWYO3OWYHEE-OWYHEE DAM07-06-2020INFLOW (KAF)5751111
25WSRI1WEISER-NEAR WEISER07-06-2020DISCHARGE (KAF)545696
26HWRI1BIG LOST-AT HOWELL RANCH NEAR CHILLY07-06-2020DISCHARGE (KAF)275748
27SERO3JOHN DAY-AT SERVICE CK07-06-2020DISCHARGE (KAF)6867102
28CSDI1NF PAYETTE-CASCADE DAM07-06-2020INFLOW (KAF)7668112
29EASW1YAKIMA-AT EASTON07-06-2020DISCHARGE (KAF)667588
30HALI1BIG WOOD-AT HAILEY07-06-2020DISCHARGE (KAF)497664
31CHEI1FALL RIVER-NEAR CHESTER07-06-2020DISCHARGE (KAF)7877101
32RILW1TIETON-RIMROCK LAKE NEAR RIMROCK07-06-2020INFLOW (KAF)747994
33RCCM8ROCK CREEK-NEAR CLINTON07-06-2020DISCHARGE (KAF)11085129
34ARAI1SF BOISE-ANDERSON RANCH DAM07-06-2020INFLOW (KAF)539258
35HODO3HOOD-NEAR TUCKER BRIDGE07-06-2020DISCHARGE (KAF)819288
36CLUW1CLE ELUM-CLE ELUM LAKE07-06-2020INFLOW (KAF)519355
37CLFW1NACHES-NEAR CLIFFDEL07-06-2020DISCHARGE (KAF)8110081
38MILI1SNAKE-AT MILNER07-06-2020DISCHARGE (KAF)1037112929
39PARW1YAKIMA-NEAR PARKER07-06-2020DISCHARGE (KAF)9413072
40IPDI1HENRYS FORK-ISLAND PARK DAM07-06-2020INFLOW (KAF)13715190
41NACW1NACHES-NEAR NACHES07-06-2020DISCHARGE (KAF)11615475
42PRTI1PRIEST-NEAR PRIEST RIVER07-06-2020DISCHARGE (KAF)203164124
43UNDW1WHITE SALMON-NEAR UNDERWOOD07-06-2020DISCHARGE (KAF)14316587
44BIGI1BOISE-AT GLENWOOD BRIDGE07-06-2020DISCHARGE (KAF)12818271
45TEAI1TETON-NEAR ST. ANTHONY07-06-2020DISCHARGE (KAF)197188105
46PATW1METHOW-NEAR PATEROS07-06-2020DISCHARGE (KAF)14519375
47PITW1KLICKITAT-NEAR PITT07-06-2020DISCHARGE (KAF)17420385
48PARI1BOISE-NEAR PARMA07-06-2020DISCHARGE (KAF)17322278
49BONM8BLACKFOOT-NEAR BONNER07-06-2020DISCHARGE (KAF)240224107
50JLKW4SNAKE-JACKSON LAKE AT DAM07-06-2020INFLOW (KAF)18722982
51LAUW1KETTLE-AT LAURIER07-06-2020DISCHARGE (KAF)23323798
52TRYO3GRANDE RONDE-TROY07-06-2020DISCHARGE (KAF)316241131
53COEI1COEUR D ALENE-COEUR D ALENE LAKE07-06-2020INFLOW (KAF)253247103
54BITM8BITTERROOT-NEAR MISSOULA07-06-2020DISCHARGE (KAF)302299101
55ANTI1HENRYS FORK-AT ST. ANTHONY07-06-2020DISCHARGE (KAF)328314105
56CHDW1CHELAN-LAKE CHELAN DAM07-06-2020INFLOW (KAF)18934355
57HHWM8SF FLATHEAD-HUNGRY HORSE DAM07-06-2020INFLOW (KAF)34935499
58REXI1HENRYS FORK-AT REXBURG07-06-2020DISCHARGE (KAF)400362110
59WGCM8MF FLATHEAD-NEAR WEST GLACIER07-06-2020DISCHARGE (KAF)438384114
60TONW1OKANOGAN-NEAR TONASKET07-06-2020DISCHARGE (KAF)453393115
61PESW1WENATCHEE-AT PESHASTIN07-06-2020DISCHARGE (KAF)26540166
62EMMI1PAYETTE-NEAR EMMETT07-06-2020DISCHARGE (KAF)40543693
63DWRI1NF CLEARWATER-DWORSHAK DAM07-06-2020INFLOW (KAF)33343676
64FCFM8NF FLATHEAD-NEAR COLUMBIA FALLS07-06-2020DISCHARGE (KAF)39044188
65KIOW1YAKIMA-AT KIONA07-06-2020DISCHARGE (KAF)38944188
66ABOM8CLARK FORK-ABOVE MISSOULA07-06-2020DISCHARGE (KAF)583457127
67BFTI1SNAKE-NEAR BLACKFOOT07-06-2020DISCHARGE (KAF)738555133
68SNAI1SNAKE-AT BLACKFOOT07-06-2020DISCHARGE (KAF)743590126
69UMTW1YAKIMA-AT UMTANUM07-06-2020DISCHARGE (KAF)59161097
70LLKW1SPOKANE-AT LONGLAKE07-06-2020INFLOW (KAF)59461597
71ORFI1CLEARWATER-AT OROFINO07-06-2020DISCHARGE (KAF)60767490
72BELM8CLARK FORK-BELOW MISSOULA07-06-2020DISCHARGE (KAF)884767115
73JKSW4SNAKE-NEAR JACKSON07-06-2020DISCHARGE (KAF)87296291
74SRGM8CLARK FORK-AT ST REGIS07-06-2020DISCHARGE (KAF)10771004107
75SHYI1SNAKE-NEAR SHELLEY07-06-2020DISCHARGE (KAF)11851022116
76MODO3DESCHUTES-AT MOODY NR BIGGS07-06-2020DISCHARGE (KAF)1044109495
77ALPW4SNAKE-NEAR ALPINE07-06-2020DISCHARGE (KAF)1047116790
78AFRI1SNAKE-AMERICAN FALLS RESERVOIR07-06-2020INFLOW (KAF)13221209109
79SPDI1CLEARWATER-AT SPALDING07-06-2020DISCHARGE (KAF)22561268178
80SIFI1SNAKE-AB EAGLE ROCK NR IDAHO FALLS07-06-2020DISCHARGE (KAF)13221316100
81CFMM8FLATHEAD-AT COLUMBIA FALLS07-06-2020DISCHARGE (KAF)15171496101
82WHBI1SALMON-AT WHITEBIRD07-06-2020DISCHARGE (KAF)15841559102
83PLDI1SF SNAKE-PALISADES DAM07-06-2020INFLOW (KAF)1446158091
84KERM8FLATHEAD-KERR DAM07-06-2020INFLOW (KAF)1715178796
85HEII1SNAKE-NEAR HEISE07-06-2020DISCHARGE (KAF)1879195996
86SWAI1SNAKE-BELOW SWAN FALLS07-06-2020DISCHARGE (KAF)26812004134
87LYDM8KOOTENAI-LIBBY DAM07-06-2020INFLOW (KAF)2323243895
88LEOI1KOOTENAI-AT LEONIA07-06-2020DISCHARGE (KAF)2571264597
89WEII1SNAKE-AT WEISER07-06-2020DISCHARGE (KAF)37492955127
90BRNI1SNAKE-BROWNLEE DAM07-06-2020INFLOW (KAF)38883006129
91NOXM8CLARK FORK-NOXON RAPIDS DAM07-06-2020INFLOW (KAF)35993395106
92CABI1CLARK FORK-CABINET GORGE DAM07-06-2020INFLOW (KAF)39753640109
93ALFW1PEND OREILLE-ALBENI FALLS DAM07-06-2020INFLOW (KAF)40383900104
94ANAW1SNAKE-NEAR ANATONE07-06-2020DISCHARGE (KAF)61534972124
95IHDW1SNAKE-ICE HARBOR DAM07-06-2020INFLOW (KAF)84256283134
96LGDW1SNAKE-LOWER GRANITE DAM07-06-2020INFLOW (KAF)84086313133
97LGSW1SNAKE-LITTLE GOOSE DAM07-06-2020INFLOW (KAF)83916338132
98LMNW1SNAKE-LOWER MONUMENTAL DAM07-06-2020INFLOW (KAF)84036371132
99CHJW1COLUMBIA-CHIEF JOSEPH DAM07-06-2020INFLOW (KAF)2408722402108
100WELW1COLUMBIA-WELLS DAM07-06-2020INFLOW (KAF)2471622970108
101RRHW1COLUMBIA-ROCKY REACH DAM07-06-2020INFLOW (KAF)2546523521108
102GCDW1COLUMBIA-GRAND COULEE DAM07-06-2020INFLOW (KAF)2524024626102
103WANW1COLUMBIA-WANAPUM DAM07-06-2020INFLOW (KAF)2584225161103
104PRWW1COLUMBIA-PRIEST RAPIDS DAM07-06-2020INFLOW (KAF)2584125631101
105TDAO3COLUMBIA-THE DALLES DAM07-06-2020INFLOW (KAF)3569732689109
106MCDW1COLUMBIA-MCNARY DAM07-06-2020INFLOW (KAF)3482832945106
107JDAO3COLUMBIA-JOHN DAY DAM07-06-2020INFLOW (KAF)3530933458106
108BONO3COLUMBIA-BONNEVILLE DAM07-06-2020INFLOW (KAF)3607833711107
109BFEI1KOOTENAI-AT BONNERS FERRY07-06-2020STAGE (FT)MMM
110DRMM8CLARK FORK-NR DRUMMOND07-06-2020DISCHARGE (KAF)204MM
111HOPI1PEND OREILLE-PEND OREILLE LAKE NR HOPE07-06-2020LAKE ELEVATION (FT)MMM
112SPOW1SPOKANE-AT SPOKANE07-06-2020DISCHARGE (KAF)413MM
113SJMI1ST JOE-AT ST MARIES07-06-2020STAGE (FT)MMM
114CIBW1COLUMBIA-AT INTL BOUNDARY07-06-2020DISCHARGE (KAF)24312MM
115LUCI1BOISE-LUCKY PEAK DAM07-06-2020INFLOW (KAF)446MM